AAL3031 KMCO-KDFW

Flight info

Callsign AAL3031
Flight time N/A
Altitude 36000
Route OSPRY1 REMIS Y280 NAITE/N0461F380 Y280 REDFN Q105 HRV J58 AEX PNUTS BEREE3
Aircraft B38M/M-SDE1FGHILORVWXY/HB1

Departure

Time 2026-04-22 03:21
Airport Orlando International Airport (KMCO)

Arrival

Time N/A
Airport Dallas Fort Worth International Airport (KDFW)
Time Latitude Longitude Altitude Speed Heading
2026-04-22 03:06 28.43510 -81.30039 103 ft 0 kts 256°
2026-04-22 03:09 28.43513 -81.30025 103 ft 4 kts 261°
2026-04-22 03:09 28.43517 -81.30001 102 ft 4 kts 253°
2026-04-22 03:10 28.43529 -81.29978 103 ft 4 kts 202°
2026-04-22 03:10 28.43551 -81.29976 103 ft 4 kts 179°
2026-04-22 03:10 28.43560 -81.29976 101 ft 0 kts 179°
2026-04-22 03:12 28.43557 -81.29976 102 ft 1 kts 176°
2026-04-22 03:12 28.43532 -81.29954 103 ft 10 kts 128°
2026-04-22 03:13 28.43467 -81.29901 103 ft 13 kts 140°
2026-04-22 03:13 28.43439 -81.29811 106 ft 12 kts 87°
2026-04-22 03:13 28.43420 -81.29724 108 ft 12 kts 143°
2026-04-22 03:13 28.43338 -81.29712 109 ft 13 kts 177°
2026-04-22 03:14 28.43243 -81.29709 108 ft 15 kts 180°
2026-04-22 03:14 28.43125 -81.29707 106 ft 18 kts 180°
2026-04-22 03:14 28.42991 -81.29706 107 ft 20 kts 180°
2026-04-22 03:14 28.42849 -81.29704 107 ft 21 kts 179°
2026-04-22 03:15 28.42688 -81.29703 103 ft 25 kts 180°
2026-04-22 03:15 28.42511 -81.29701 104 ft 26 kts 179°
2026-04-22 03:15 28.42372 -81.29701 104 ft 18 kts 178°
2026-04-22 03:15 28.42285 -81.29760 102 ft 16 kts 256°
2026-04-22 03:16 28.42281 -81.29883 107 ft 16 kts 270°
2026-04-22 03:16 28.42279 -81.30046 106 ft 24 kts 269°
2026-04-22 03:16 28.42277 -81.30248 104 ft 27 kts 269°
2026-04-22 03:16 28.42270 -81.30465 104 ft 27 kts 265°
2026-04-22 03:17 28.42254 -81.30679 107 ft 28 kts 265°
2026-04-22 03:17 28.42238 -81.30906 104 ft 30 kts 266°
2026-04-22 03:17 28.42252 -81.31146 102 ft 30 kts 280°
2026-04-22 03:17 28.42267 -81.31378 103 ft 30 kts 269°
2026-04-22 03:18 28.42266 -81.31594 105 ft 21 kts 270°
2026-04-22 03:18 28.42265 -81.31759 108 ft 20 kts 270°
2026-04-22 03:18 28.42264 -81.31907 111 ft 18 kts 269°
2026-04-22 03:18 28.42173 -81.31984 111 ft 20 kts 180°
2026-04-22 03:19 28.42025 -81.31982 106 ft 23 kts 179°
2026-04-22 03:19 28.41854 -81.31980 105 ft 25 kts 179°
2026-04-22 03:19 28.41689 -81.31980 103 ft 19 kts 178°
2026-04-22 03:19 28.41603 -81.31979 102 ft 4 kts 181°
2026-04-22 03:20 28.41568 -81.31993 102 ft 6 kts 214°
2026-04-22 03:20 28.41546 -81.32047 103 ft 10 kts 262°
2026-04-22 03:20 28.41549 -81.32147 104 ft 16 kts 291°
2026-04-22 03:20 28.41656 -81.32198 103 ft 22 kts 359°
2026-04-22 03:21 28.42026 -81.32201 109 ft 91 kts 359°
2026-04-22 03:21 28.42915 -81.32211 108 ft 162 kts 359°
2026-04-22 03:21 28.44131 -81.32202 729 ft 178 kts
2026-04-22 03:21 28.45418 -81.32101 1617 ft 194 kts
2026-04-22 03:22 28.46805 -81.31979 2395 ft 205 kts
2026-04-22 03:22 28.48254 -81.31870 3192 ft 210 kts 359°
2026-04-22 03:22 28.49673 -81.32032 4158 ft 204 kts 352°
2026-04-22 03:22 28.51108 -81.32276 4846 ft 218 kts 351°
2026-04-22 03:23 28.52722 -81.32452 5165 ft 247 kts 355°
2026-04-22 03:23 28.54539 -81.32624 5511 ft 273 kts 359°
2026-04-22 03:23 28.56340 -81.32431 6206 ft 251 kts
2026-04-22 03:23 28.58036 -81.32754 6467 ft 247 kts 335°
2026-04-22 03:24 28.59284 -81.34030 6544 ft 244 kts 297°
2026-04-22 03:24 28.59642 -81.35917 6607 ft 254 kts 270°
2026-04-22 03:24 28.59656 -81.37969 6630 ft 263 kts 270°
2026-04-22 03:24 28.59667 -81.40074 6657 ft 268 kts 270°
2026-04-22 03:25 28.59666 -81.42220 7021 ft 273 kts 270°
2026-04-22 03:25 28.59657 -81.44373 8003 ft 272 kts 269°
2026-04-22 03:25 28.59643 -81.46532 8875 ft 275 kts 269°
2026-04-22 03:25 28.59522 -81.48717 9692 ft 279 kts 255°
2026-04-22 03:26 28.58693 -81.50705 10297 ft 291 kts 233°
2026-04-22 03:26 28.57362 -81.52533 10676 ft 310 kts 230°
2026-04-22 03:26 28.55922 -81.54474 11018 ft 330 kts 230°
2026-04-22 03:26 28.54399 -81.56507 11488 ft 343 kts 229°
2026-04-22 03:27 28.52833 -81.58586 12215 ft 346 kts 229°
2026-04-22 03:27 28.51256 -81.60672 12937 ft 351 kts 229°
2026-04-22 03:27 28.49655 -81.62786 13652 ft 354 kts 229°
2026-04-22 03:27 28.48038 -81.64920 14363 ft 358 kts 229°
2026-04-22 03:28 28.46425 -81.67046 15047 ft 362 kts 229°
2026-04-22 03:28 28.44774 -81.69222 15722 ft 365 kts 229°
2026-04-22 03:28 28.43105 -81.71419 16391 ft 369 kts 229°
2026-04-22 03:28 28.41419 -81.73639 17021 ft 372 kts 229°
2026-04-22 03:29 28.39720 -81.75874 17641 ft 376 kts 229°
2026-04-22 03:29 28.38005 -81.78130 18244 ft 379 kts 229°
2026-04-22 03:29 28.36274 -81.80404 18835 ft 382 kts 229°
2026-04-22 03:29 28.34524 -81.82703 19409 ft 385 kts 229°
2026-04-22 03:30 28.32762 -81.85016 19970 ft 389 kts 229°
2026-04-22 03:30 28.30992 -81.87347 20510 ft 392 kts 231°
2026-04-22 03:30 28.29597 -81.90002 21032 ft 394 kts 249°
2026-04-22 03:30 28.28870 -81.93010 21541 ft 397 kts 256°
2026-04-22 03:31 28.28239 -81.96082 22016 ft 401 kts 257°
2026-04-22 03:31 28.27624 -81.99173 22525 ft 403 kts 257°
2026-04-22 03:31 28.27018 -82.02294 22996 ft 407 kts 257°
2026-04-22 03:31 28.26412 -82.05444 23459 ft 409 kts 258°
2026-04-22 03:32 28.25813 -82.08573 23904 ft 412 kts 258°
2026-04-22 03:32 28.25204 -82.11760 24340 ft 415 kts 258°
2026-04-22 03:32 28.24586 -82.14987 24772 ft 417 kts 258°
2026-04-22 03:32 28.23966 -82.18218 25187 ft 420 kts 257°
2026-04-22 03:33 28.23352 -82.21421 25584 ft 423 kts 257°
2026-04-22 03:33 28.22724 -82.24689 25977 ft 425 kts 257°
2026-04-22 03:33 28.22091 -82.27975 26359 ft 428 kts 257°
2026-04-22 03:33 28.21456 -82.31275 26732 ft 430 kts 257°
2026-04-22 03:34 28.20814 -82.34598 27093 ft 432 kts 257°
2026-04-22 03:34 28.20169 -82.37935 27445 ft 435 kts 257°
2026-04-22 03:34 28.19519 -82.41294 27805 ft 437 kts 257°
2026-04-22 03:34 28.18865 -82.44672 28143 ft 439 kts 257°
2026-04-22 03:35 28.18207 -82.48062 28473 ft 441 kts 257°
2026-04-22 03:35 28.17553 -82.51427 28792 ft 443 kts 257°
2026-04-22 03:35 28.16887 -82.54851 29106 ft 446 kts 257°
2026-04-22 03:35 28.16217 -82.58287 29416 ft 448 kts 257°
2026-04-22 03:36 28.15545 -82.61734 29722 ft 450 kts 257°
2026-04-22 03:36 28.14867 -82.65203 30025 ft 452 kts 257°
2026-04-22 03:36 28.14186 -82.68682 30308 ft 454 kts 257°
2026-04-22 03:36 28.13502 -82.72175 30650 ft 454 kts 257°
2026-04-22 03:37 28.12814 -82.75675 31037 ft 453 kts 257°
2026-04-22 03:37 28.12130 -82.79158 31424 ft 452 kts 257°
2026-04-22 03:37 28.11444 -82.82646 31805 ft 451 kts 257°
2026-04-22 03:37 28.10770 -82.86072 32166 ft 451 kts 257°
2026-04-22 03:38 28.10101 -82.89540 32528 ft 450 kts 258°
2026-04-22 03:38 28.09453 -82.93006 32884 ft 449 kts 258°
2026-04-22 03:38 28.08803 -82.96462 33237 ft 448 kts 258°
2026-04-22 03:38 28.08151 -82.99918 33577 ft 448 kts 258°
2026-04-22 03:39 28.07501 -83.03362 33915 ft 447 kts 258°
2026-04-22 03:39 28.06851 -83.06795 34247 ft 446 kts 258°
2026-04-22 03:39 28.06199 -83.10234 34579 ft 445 kts 258°
2026-04-22 03:39 28.05548 -83.13665 34874 ft 445 kts 258°
2026-04-22 03:40 28.04905 -83.17045 35168 ft 444 kts 258°
2026-04-22 03:40 28.04256 -83.20459 35453 ft 444 kts 258°
2026-04-22 03:40 28.03604 -83.23876 35719 ft 443 kts 258°
2026-04-22 03:40 28.02953 -83.27285 35954 ft 444 kts 258°
2026-04-22 03:41 28.01647 -83.34114 35996 ft 441 kts 258°
2026-04-22 03:41 28.00347 -83.40899 36004 ft 441 kts 258°
2026-04-22 03:42 27.99767 -83.47791 36007 ft 441 kts 266°
2026-04-22 03:42 27.99363 -83.54676 35999 ft 441 kts 266°
2026-04-22 03:43 27.98961 -83.61606 36002 ft 441 kts 266°
2026-04-22 03:43 27.98555 -83.68534 36000 ft 441 kts 266°
2026-04-22 03:44 27.98215 -83.74294 36004 ft 441 kts 266°
2026-04-22 03:44 27.97803 -83.81215 35999 ft 441 kts 266°
2026-04-22 03:45 27.97388 -83.88139 35999 ft 441 kts 266°
2026-04-22 03:45 27.96970 -83.95055 35998 ft 441 kts 266°
2026-04-22 03:46 27.96547 -84.01978 35999 ft 441 kts 266°
2026-04-22 03:46 27.96121 -84.08915 35999 ft 441 kts 266°
2026-04-22 03:47 27.95692 -84.15832 36003 ft 441 kts 266°
2026-04-22 03:47 27.95262 -84.22713 36001 ft 441 kts 266°
2026-04-22 03:48 27.94825 -84.29644 36000 ft 441 kts 266°
2026-04-22 03:48 27.94386 -84.36561 36002 ft 441 kts 266°
2026-04-22 03:49 27.93942 -84.43492 35999 ft 441 kts 266°
2026-04-22 03:49 27.93495 -84.50417 36002 ft 441 kts 265°
2026-04-22 03:50 27.93047 -84.57301 36002 ft 441 kts 265°
2026-04-22 03:50 27.92593 -84.64228 35999 ft 441 kts 265°
2026-04-22 03:51 27.92137 -84.71144 35999 ft 441 kts 265°
2026-04-22 03:51 27.91676 -84.78062 35999 ft 441 kts 265°
2026-04-22 03:52 27.91212 -84.84980 36000 ft 441 kts 265°
2026-04-22 03:52 27.90745 -84.91899 36002 ft 441 kts 265°
2026-04-22 03:53 27.90511 -84.95339 35440 ft 441 kts 266°
2026-04-22 03:53 27.90263 -84.98733 35637 ft 419 kts 267°
2026-04-22 03:53 27.89972 -85.01964 36084 ft 408 kts 266°
2026-04-22 03:53 27.89714 -85.05140 36158 ft 406 kts 270°
2026-04-22 03:54 27.89568 -85.08291 36340 ft 400 kts 269°
2026-04-22 03:54 27.89382 -85.11438 36252 ft 401 kts 268°
2026-04-22 03:54 27.88972 -85.17680 36241 ft 400 kts 268°
2026-04-22 03:55 27.88572 -85.23963 36231 ft 399 kts 273°
2026-04-22 03:55 27.88986 -85.27029 36226 ft 395 kts 287°
2026-04-22 03:55 27.89806 -85.30002 36226 ft 398 kts 287°
2026-04-22 03:56 27.91514 -85.35947 36235 ft 398 kts 288°
2026-04-22 03:56 27.93284 -85.41871 36233 ft 397 kts 288°
2026-04-22 03:57 27.95072 -85.47799 36237 ft 397 kts 288°
2026-04-22 03:57 27.96844 -85.53674 36238 ft 397 kts 288°
2026-04-22 03:58 27.98626 -85.59593 36234 ft 397 kts 288°
2026-04-22 03:58 28.00403 -85.65504 36256 ft 397 kts 288°
2026-04-22 03:59 28.02182 -85.71431 36239 ft 397 kts 288°
2026-04-22 03:59 28.03954 -85.77348 36237 ft 397 kts 288°
2026-04-22 04:00 28.05714 -85.83235 36236 ft 397 kts 288°
2026-04-22 04:00 28.07481 -85.89153 36237 ft 397 kts 288°
2026-04-22 04:01 28.09248 -85.95085 36237 ft 397 kts 288°
2026-04-22 04:01 28.11013 -86.01020 36236 ft 397 kts 288°
2026-04-22 04:02 28.12763 -86.06913 36235 ft 397 kts 288°
2026-04-22 04:02 28.14520 -86.12840 36237 ft 397 kts 288°
2026-04-22 04:03 28.16275 -86.18773 36232 ft 397 kts 288°
2026-04-22 04:03 28.18028 -86.24701 36236 ft 396 kts 288°
2026-04-22 04:04 28.19773 -86.30629 36235 ft 397 kts 288°
2026-04-22 04:04 28.21520 -86.36564 36235 ft 397 kts 288°
2026-04-22 04:05 28.23265 -86.42507 36235 ft 397 kts 288°
2026-04-22 04:05 28.24996 -86.48410 36236 ft 397 kts 288°
2026-04-22 04:06 28.26734 -86.54346 36232 ft 397 kts 288°
2026-04-22 04:06 28.28471 -86.60291 36228 ft 397 kts 287°
2026-04-22 04:07 28.30209 -86.66245 36229 ft 397 kts 287°
2026-04-22 04:07 28.31947 -86.72191 36230 ft 397 kts 288°
2026-04-22 04:08 28.33688 -86.78132 36251 ft 397 kts 287°
2026-04-22 04:08 28.35427 -86.84076 36235 ft 396 kts 287°
2026-04-22 04:09 28.37151 -86.89978 36233 ft 396 kts 287°
2026-04-22 04:09 28.38886 -86.95930 36230 ft 397 kts 287°
2026-04-22 04:10 28.40619 -87.01882 36237 ft 397 kts 287°
2026-04-22 04:10 28.42349 -87.07837 36235 ft 397 kts 287°
2026-04-22 04:11 28.44077 -87.13797 36233 ft 397 kts 287°
2026-04-22 04:11 28.45791 -87.19719 36233 ft 397 kts 287°
2026-04-22 04:12 28.47514 -87.25680 36235 ft 397 kts 287°
2026-04-22 04:12 28.49246 -87.31685 36233 ft 397 kts 287°
2026-04-22 04:13 28.50962 -87.37649 36232 ft 398 kts 287°
2026-04-22 04:13 28.52681 -87.43629 36233 ft 398 kts 287°
2026-04-22 04:14 28.54384 -87.49570 36236 ft 398 kts 287°
2026-04-22 04:14 28.56097 -87.55553 36236 ft 398 kts 287°
2026-04-22 04:15 28.57806 -87.61534 36235 ft 398 kts 287°
2026-04-22 04:15 28.59516 -87.67528 36235 ft 398 kts 287°
2026-04-22 04:16 28.62072 -87.76511 36233 ft 398 kts 287°
2026-04-22 04:17 28.63774 -87.82507 36235 ft 398 kts 287°
2026-04-22 04:17 28.65474 -87.88508 36258 ft 398 kts 287°
2026-04-22 04:18 28.67169 -87.94501 36237 ft 397 kts 287°
2026-04-22 04:18 28.68863 -88.00499 36235 ft 398 kts 287°
2026-04-22 04:19 28.70546 -88.06466 36235 ft 397 kts 287°
2026-04-22 04:19 28.72231 -88.12465 36232 ft 398 kts 287°
2026-04-22 04:20 28.73920 -88.18484 36234 ft 398 kts 286°
2026-04-22 04:20 28.75603 -88.24494 36235 ft 398 kts 286°
2026-04-22 04:21 28.77286 -88.30511 36232 ft 398 kts 286°
2026-04-22 04:21 28.78964 -88.36525 36233 ft 398 kts 286°
2026-04-22 04:22 28.80641 -88.42546 36236 ft 398 kts 286°
2026-04-22 04:22 28.82306 -88.48534 36226 ft 398 kts 286°
2026-04-22 04:23 28.83975 -88.54551 36228 ft 398 kts 286°
2026-04-22 04:23 28.85643 -88.60570 36231 ft 398 kts 286°
2026-04-22 04:24 28.87307 -88.66589 36232 ft 398 kts 286°
2026-04-22 04:24 28.88311 -88.69530 36214 ft 400 kts 297°
2026-04-22 04:24 28.89954 -88.72101 36247 ft 403 kts 305°
2026-04-22 04:25 28.93536 -88.77054 36233 ft 405 kts 306°
2026-04-22 04:25 28.97197 -88.81972 36239 ft 406 kts 306°
2026-04-22 04:26 29.00883 -88.86876 36230 ft 407 kts 306°
2026-04-22 04:26 29.04575 -88.91788 36230 ft 408 kts 306°
2026-04-22 04:27 29.08251 -88.96685 36227 ft 408 kts 306°
2026-04-22 04:27 29.11942 -89.01607 36227 ft 408 kts 306°
2026-04-22 04:28 29.15635 -89.06537 36230 ft 408 kts 306°
2026-04-22 04:28 29.19322 -89.11465 36230 ft 407 kts 306°
2026-04-22 04:29 29.23012 -89.16404 36227 ft 407 kts 306°
2026-04-22 04:29 29.26676 -89.21313 36236 ft 408 kts 306°
2026-04-22 04:30 29.30365 -89.26262 36228 ft 409 kts 306°
2026-04-22 04:30 29.34067 -89.31235 36230 ft 410 kts 306°
2026-04-22 04:31 29.37770 -89.36214 36228 ft 410 kts 306°
2026-04-22 04:31 29.41449 -89.41167 36227 ft 410 kts 306°
2026-04-22 04:32 29.44523 -89.45310 36225 ft 410 kts 306°
2026-04-22 04:32 29.48216 -89.50295 36226 ft 410 kts 306°
2026-04-22 04:33 29.51916 -89.55293 36228 ft 410 kts 306°
2026-04-22 04:33 29.55611 -89.60292 36243 ft 410 kts 306°
2026-04-22 04:34 29.59271 -89.65250 36231 ft 409 kts 306°
2026-04-22 04:34 29.62956 -89.70248 36229 ft 409 kts 306°
2026-04-22 04:35 29.66640 -89.75248 36231 ft 409 kts 306°
2026-04-22 04:35 29.70322 -89.80255 36232 ft 409 kts 306°
2026-04-22 04:36 29.73977 -89.85231 36230 ft 409 kts 306°
2026-04-22 04:36 29.77658 -89.90248 36233 ft 409 kts 306°
2026-04-22 04:37 29.81333 -89.95262 36231 ft 409 kts 306°
2026-04-22 04:37 29.84968 -90.00303 36245 ft 407 kts 300°
2026-04-22 04:38 29.88039 -90.05784 36224 ft 408 kts 299°
2026-04-22 04:38 29.91171 -90.11211 36238 ft 408 kts 300°
2026-04-22 04:39 29.94328 -90.16656 36239 ft 408 kts 300°
2026-04-22 04:39 29.97484 -90.22103 36239 ft 408 kts 300°
2026-04-22 04:40 30.00639 -90.27554 36241 ft 408 kts 300°
2026-04-22 04:40 30.03790 -90.33007 36238 ft 408 kts 300°
2026-04-22 04:41 30.06944 -90.38471 36233 ft 408 kts 300°
2026-04-22 04:41 30.10069 -90.43893 36252 ft 408 kts 300°
2026-04-22 04:42 30.13213 -90.49355 36257 ft 407 kts 300°
2026-04-22 04:42 30.16340 -90.54796 36249 ft 406 kts 300°
2026-04-22 04:43 30.19461 -90.60232 36249 ft 406 kts 299°
2026-04-22 04:43 30.22566 -90.65648 36246 ft 406 kts 299°
2026-04-22 04:44 30.25687 -90.71101 36234 ft 406 kts 299°
2026-04-22 04:44 30.28802 -90.76550 36237 ft 406 kts 300°
2026-04-22 04:45 30.31912 -90.81996 36237 ft 405 kts 299°
2026-04-22 04:45 30.35018 -90.87444 36235 ft 405 kts 299°
2026-04-22 04:46 30.38101 -90.92858 36231 ft 405 kts 299°
2026-04-22 04:46 30.41204 -90.98315 36255 ft 405 kts 299°
2026-04-22 04:47 30.44299 -91.03766 36245 ft 405 kts 299°
2026-04-22 04:47 30.47396 -91.09228 36248 ft 405 kts 299°
2026-04-22 04:48 30.50487 -91.14685 36245 ft 405 kts 299°
2026-04-22 04:48 30.53591 -91.20175 36250 ft 408 kts 299°
2026-04-22 04:49 30.56703 -91.25686 36246 ft 408 kts 299°
2026-04-22 04:49 30.59795 -91.31168 36244 ft 408 kts 299°
2026-04-22 04:50 30.62903 -91.36684 36221 ft 408 kts 299°
2026-04-22 04:50 30.66013 -91.42211 36220 ft 408 kts 299°
2026-04-22 04:51 30.69105 -91.47735 36220 ft 408 kts 299°
2026-04-22 04:51 30.72204 -91.53276 36217 ft 408 kts 299°
2026-04-22 04:52 30.75297 -91.58810 36224 ft 409 kts 299°
2026-04-22 04:52 30.78396 -91.64367 36220 ft 409 kts 299°
2026-04-22 04:53 30.81469 -91.69882 36222 ft 409 kts 299°
2026-04-22 04:53 30.84561 -91.75439 36221 ft 409 kts 299°
2026-04-22 04:54 30.87650 -91.81001 36222 ft 409 kts 299°
2026-04-22 04:54 30.90735 -91.86562 36215 ft 409 kts 299°
2026-04-22 04:55 30.93819 -91.92129 36222 ft 409 kts 298°
2026-04-22 04:55 30.96903 -91.97702 36232 ft 409 kts 299°
2026-04-22 04:56 30.99980 -92.03273 36228 ft 409 kts 299°
2026-04-22 04:56 31.03043 -92.08825 36232 ft 409 kts 299°
2026-04-22 04:57 31.06119 -92.14411 36231 ft 409 kts 299°
2026-04-22 04:57 31.09192 -92.19998 36229 ft 409 kts 299°
2026-04-22 04:58 31.12267 -92.25596 36226 ft 409 kts 299°
2026-04-22 04:58 31.15343 -92.31204 36220 ft 409 kts 298°
2026-04-22 04:59 31.18396 -92.36779 36216 ft 410 kts 298°
2026-04-22 04:59 31.21472 -92.42402 36213 ft 410 kts 298°
2026-04-22 05:00 31.24549 -92.48034 36206 ft 412 kts 299°
2026-04-22 05:00 31.26987 -92.54026 36209 ft 408 kts 290°
2026-04-22 05:01 31.29104 -92.60146 36210 ft 408 kts 289°
2026-04-22 05:01 31.31215 -92.66326 36216 ft 408 kts 289°
2026-04-22 05:02 31.33318 -92.72507 36222 ft 409 kts 289°
2026-04-22 05:02 31.35423 -92.78700 36218 ft 409 kts 289°
2026-04-22 05:03 31.37526 -92.84902 36230 ft 409 kts 289°
2026-04-22 05:03 31.39627 -92.91109 36223 ft 410 kts 289°
2026-04-22 05:04 31.41707 -92.97266 36224 ft 409 kts 289°
2026-04-22 05:04 31.43799 -93.03472 36220 ft 410 kts 289°
2026-04-22 05:05 31.45891 -93.09688 36233 ft 411 kts 289°
2026-04-22 05:05 31.47986 -93.15922 36228 ft 411 kts 289°
2026-04-22 05:06 31.50082 -93.22174 36227 ft 413 kts 289°
2026-04-22 05:06 31.52181 -93.28446 36227 ft 413 kts 289°
2026-04-22 05:07 31.54276 -93.34717 36222 ft 413 kts 289°
2026-04-22 05:07 31.56368 -93.40993 36222 ft 413 kts 289°
2026-04-22 05:08 31.58459 -93.47274 36225 ft 413 kts 289°
2026-04-22 05:08 31.60527 -93.53569 36224 ft 413 kts 285°
2026-04-22 05:09 31.62092 -93.59989 36225 ft 412 kts 285°
2026-04-22 05:09 31.63711 -93.66442 36221 ft 412 kts 285°
2026-04-22 05:10 31.65340 -93.72898 36224 ft 412 kts 285°
2026-04-22 05:10 31.66969 -93.79359 36222 ft 412 kts 285°
2026-04-22 05:11 31.68593 -93.85820 36223 ft 413 kts 285°
2026-04-22 05:11 31.70215 -93.92288 36226 ft 413 kts 285°
2026-04-22 05:12 31.71834 -93.98757 36226 ft 413 kts 285°
2026-04-22 05:12 31.73452 -94.05238 36228 ft 413 kts 285°
2026-04-22 05:13 31.75068 -94.11724 36234 ft 414 kts 285°
2026-04-22 05:13 31.76680 -94.18213 36231 ft 414 kts 285°
2026-04-22 05:14 31.78284 -94.24681 36230 ft 415 kts 285°
2026-04-22 05:14 31.79897 -94.31206 36229 ft 415 kts 285°
2026-04-22 05:15 31.81506 -94.37729 36229 ft 415 kts 285°
2026-04-22 05:15 31.83112 -94.44256 36231 ft 415 kts 285°
2026-04-22 05:16 31.84715 -94.50786 36229 ft 415 kts 285°
2026-04-22 05:16 31.86314 -94.57311 36229 ft 415 kts 285°
2026-04-22 05:17 31.87914 -94.63861 36226 ft 418 kts 285°
2026-04-22 05:17 31.89507 -94.70397 36218 ft 417 kts 285°
2026-04-22 05:18 31.91904 -94.80264 36218 ft 417 kts 285°
2026-04-22 05:18 31.93489 -94.86809 36214 ft 417 kts 285°
2026-04-22 05:19 31.94811 -94.92275 36214 ft 417 kts 285°
2026-04-22 05:19 31.96659 -94.99939 36201 ft 419 kts 285°
2026-04-22 05:20 31.97985 -95.05448 36213 ft 420 kts 285°
2026-04-22 05:20 31.99569 -95.12071 36195 ft 419 kts 285°
2026-04-22 05:21 32.01148 -95.18689 36189 ft 419 kts 285°
2026-04-22 05:21 32.02714 -95.25267 36192 ft 419 kts 285°
2026-04-22 05:22 32.04286 -95.31890 36197 ft 419 kts 285°
2026-04-22 05:22 32.05859 -95.38531 36205 ft 421 kts 285°
2026-04-22 05:23 32.07432 -95.45190 36201 ft 421 kts 285°
2026-04-22 05:23 32.09002 -95.51855 36206 ft 422 kts 285°
2026-04-22 05:24 32.10569 -95.58524 36209 ft 421 kts 285°
2026-04-22 05:24 32.12121 -95.65145 35956 ft 418 kts 285°
2026-04-22 05:25 32.12895 -95.68452 35175 ft 420 kts 284°
2026-04-22 05:25 32.13675 -95.71789 34413 ft 423 kts 284°
2026-04-22 05:25 32.14455 -95.75130 33638 ft 423 kts 284°
2026-04-22 05:25 32.15237 -95.78487 32784 ft 425 kts 284°
2026-04-22 05:26 32.16018 -95.81844 32028 ft 424 kts 285°
2026-04-22 05:26 32.16797 -95.85201 31365 ft 422 kts 285°
2026-04-22 05:26 32.17572 -95.88537 30718 ft 421 kts 285°
2026-04-22 05:26 32.18338 -95.91846 30345 ft 411 kts 285°
2026-04-22 05:27 32.19091 -95.95097 29950 ft 412 kts 285°
2026-04-22 05:27 32.19847 -95.98361 29249 ft 412 kts 285°
2026-04-22 05:27 32.20602 -96.01626 28696 ft 411 kts 285°
2026-04-22 05:27 32.21351 -96.04870 28080 ft 409 kts 285°
2026-04-22 05:28 32.22097 -96.08108 27466 ft 406 kts 285°
2026-04-22 05:28 32.22838 -96.11322 26848 ft 405 kts 285°
2026-04-22 05:28 32.23574 -96.14524 26249 ft 403 kts 285°
2026-04-22 05:28 32.24308 -96.17718 25644 ft 403 kts 285°
2026-04-22 05:29 32.25041 -96.20913 25038 ft 403 kts 285°
2026-04-22 05:29 32.25772 -96.24100 24432 ft 403 kts 285°
2026-04-22 05:29 32.26504 -96.27300 23823 ft 403 kts 285°
2026-04-22 05:29 32.27270 -96.30495 23096 ft 404 kts 290°
2026-04-22 05:30 32.28607 -96.33358 22414 ft 403 kts 309°
2026-04-22 05:30 32.30548 -96.35731 21961 ft 398 kts 314°
2026-04-22 05:30 32.32498 -96.38020 21481 ft 393 kts 315°
2026-04-22 05:30 32.34444 -96.40280 20959 ft 391 kts 315°
2026-04-22 05:31 32.36384 -96.42519 20445 ft 388 kts 315°
2026-04-22 05:31 32.38311 -96.44738 19935 ft 386 kts 315°
2026-04-22 05:31 32.40238 -96.46955 19418 ft 385 kts 315°
2026-04-22 05:31 32.42150 -96.49156 18915 ft 383 kts 315°
2026-04-22 05:32 32.44060 -96.51355 18401 ft 382 kts 315°
2026-04-22 05:32 32.45961 -96.53546 17847 ft 381 kts 315°
2026-04-22 05:32 32.47852 -96.55727 17320 ft 378 kts 315°
2026-04-22 05:32 32.49739 -96.57890 16792 ft 377 kts 315°
2026-04-22 05:33 32.51597 -96.60019 16262 ft 375 kts 315°
2026-04-22 05:33 32.53491 -96.62190 15755 ft 373 kts 315°
2026-04-22 05:33 32.55325 -96.64294 15294 ft 371 kts 315°
2026-04-22 05:33 32.57176 -96.66400 14849 ft 367 kts 316°
2026-04-22 05:34 32.59025 -96.68481 14426 ft 364 kts 316°
2026-04-22 05:34 32.60846 -96.70535 14068 ft 359 kts 316°
2026-04-22 05:34 32.62633 -96.72552 13661 ft 355 kts 316°
2026-04-22 05:34 32.64412 -96.74561 13248 ft 346 kts 315°
2026-04-22 05:35 32.66117 -96.76490 12936 ft 329 kts 315°
2026-04-22 05:35 32.67720 -96.78307 12835 ft 308 kts 315°
2026-04-22 05:35 32.69241 -96.80032 12735 ft 297 kts 315°
2026-04-22 05:35 32.70714 -96.81704 12616 ft 287 kts 315°
2026-04-22 05:36 32.72111 -96.83289 12496 ft 269 kts 315°
2026-04-22 05:36 32.73434 -96.84792 12411 ft 257 kts 315°
2026-04-22 05:36 32.74705 -96.86236 12304 ft 248 kts 315°
2026-04-22 05:36 32.75933 -96.87633 12206 ft 244 kts 315°
2026-04-22 05:37 32.77146 -96.89012 12130 ft 245 kts 315°
2026-04-22 05:37 32.78382 -96.90394 12026 ft 243 kts 320°
2026-04-22 05:37 32.79893 -96.91268 11858 ft 245 kts 348°
2026-04-22 05:37 32.81601 -96.91378 11729 ft 248 kts 356°
2026-04-22 05:38 32.83332 -96.91409 11615 ft 249 kts 357°